When you browse on this site, cookies collect data to enhance your experience and personalize the content and advertising you see.
Visit our Privacy Policy to learn more. By continuing to use the site, you agree to this use of cookies and data.
  • în România
  • Lista ţărilor
  • Pe 7 zile
  • Temperatura apei
  • Meteo pe hartă
  • Widget-uri
  • user-avatar
    Intrare

    Meteo pe oră la Elbasan

    Astăzi, 29 Mai, Vineri

    Timp Temperatura Precipitaţii Vânt Presiune Umiditate
    00:00 +12°C° 0 mm 1 m/s 736 mmHg 86%
    01:00 +12°C° 0 mm 1 m/s 736 mmHg 85%
    02:00 +12°C° 0 mm 1 m/s 736 mmHg 84%
    03:00 +12°C° 0 mm 1 m/s 736 mmHg 83%
    04:00 +12°C° 0 mm 1 m/s 736 mmHg 82%
    05:00 +13°C° 0 mm 1 m/s 736 mmHg 77%
    06:00 +15°C° 0 mm 1 m/s 736 mmHg 73%
    07:00 +16°C° 0 mm 1 m/s 736 mmHg 68%
    08:00 +18°C° 0.3 mm 1 m/s 736 mmHg 64%
    09:00 +20°C° 0.3 mm 1 m/s 736 mmHg 60%
    10:00 +21°C° 0.3 mm 1 m/s 736 mmHg 56%
    11:00 +20°C° 1 mm 2 m/s 736 mmHg 56%
    12:00 +20°C° 1 mm 2 m/s 735 mmHg 56%
    13:00 +21°C° 1 mm 2 m/s 735 mmHg 56%
    14:00 +20°C° 1 mm 3 m/s 735 mmHg 59%
    15:00 +20°C° 1 mm 3 m/s 735 mmHg 61%
    16:00 +19°C° 1 mm 3 m/s 735 mmHg 64%
    17:00 +18°C° 0.7 mm 2 m/s 735 mmHg 69%
    18:00 +16°C° 0.7 mm 2 m/s 735 mmHg 75%
    19:00 +15°C° 0.7 mm 1 m/s 735 mmHg 80%
    20:00 +14°C° 0.1 mm 1 m/s 735 mmHg 82%
    21:00 +14°C° 0.1 mm 1 m/s 735 mmHg 83%
    22:00 +12°C° 0.1 mm 0 m/s 735 mmHg 84%
    23:00 +13°C° 0 mm 1 m/s 735 mmHg 84%

    Mâine, 30 Mai, Sâmbătă

    Timp Temperatura Precipitaţii Vânt Presiune Umiditate
    00:00 +12°C° 0 mm 1 m/s 735 mmHg 84%
    01:00 +12°C° 0 mm 1 m/s 735 mmHg 83%
    02:00 +12°C° 0 mm 1 m/s 735 mmHg 83%
    03:00 +11°C° 0 mm 1 m/s 735 mmHg 82%
    04:00 +11°C° 0 mm 1 m/s 735 mmHg 81%
    05:00 +13°C° 0 mm 1 m/s 735 mmHg 77%
    06:00 +15°C° 0 mm 1 m/s 735 mmHg 72%
    07:00 +16°C° 0 mm 1 m/s 735 mmHg 68%
    08:00 +19°C° 0 mm 1 m/s 735 mmHg 64%
    09:00 +20°C° 0 mm 1 m/s 735 mmHg 59%
    10:00 +20°C° 0 mm 2 m/s 735 mmHg 55%
    11:00 +20°C° 0.2 mm 2 m/s 735 mmHg 54%
    12:00 +21°C° 0.2 mm 3 m/s 735 mmHg 54%
    13:00 +21°C° 0.2 mm 4 m/s 734 mmHg 53%
    14:00 +21°C° 0.1 mm 3 m/s 734 mmHg 54%
    15:00 +20°C° 0.1 mm 3 m/s 734 mmHg 54%
    16:00 +20°C° 0.1 mm 3 m/s 734 mmHg 55%
    17:00 +18°C° 0 mm 2 m/s 734 mmHg 62%
    18:00 +16°C° 0 mm 1 m/s 734 mmHg 69%
    19:00 +14°C° 0 mm 1 m/s 734 mmHg 75%
    20:00 +14°C° 0 mm 1 m/s 734 mmHg 76%
    21:00 +14°C° 0 mm 1 m/s 734 mmHg 76%
    22:00 +13°C° 0 mm 1 m/s 735 mmHg 76%
    23:00 +13°C° 0 mm 1 m/s 734 mmHg 75%

    Poimâine, 31 Mai, Duminică

    Timp Temperatura Precipitaţii Vânt Presiune Umiditate
    00:00 +13°C° 0 mm 1 m/s 734 mmHg 74%
    01:00 +13°C° 0 mm 1 m/s 734 mmHg 72%
    02:00 +13°C° 0 mm 1 m/s 734 mmHg 71%
    03:00 +12°C° 0 mm 1 m/s 734 mmHg 71%
    04:00 +12°C° 0 mm 1 m/s 734 mmHg 70%
    05:00 +14°C° 0 mm 1 m/s 734 mmHg 68%
    06:00 +15°C° 0 mm 1 m/s 734 mmHg 66%
    07:00 +15°C° 0 mm 0 m/s 734 mmHg 64%
    08:00 +18°C° 0.1 mm 1 m/s 734 mmHg 64%
    09:00 +18°C° 0.1 mm 1 m/s 734 mmHg 64%
    10:00 +18°C° 0.1 mm 2 m/s 734 mmHg 63%
    11:00 +19°C° 0.4 mm 2 m/s 734 mmHg 63%
    12:00 +19°C° 0.4 mm 2 m/s 733 mmHg 63%
    13:00 +20°C° 0.4 mm 3 m/s 733 mmHg 63%
    14:00 +19°C° 0.6 mm 3 m/s 733 mmHg 65%
    15:00 +19°C° 0.6 mm 3 m/s 733 mmHg 68%
    16:00 +19°C° 0.6 mm 3 m/s 732 mmHg 70%
    17:00 +17°C° 0.3 mm 2 m/s 732 mmHg 75%
    18:00 +16°C° 0.3 mm 2 m/s 732 mmHg 81%
    19:00 +15°C° 0.3 mm 1 m/s 732 mmHg 87%
    20:00 +14°C° 0 mm 1 m/s 733 mmHg 88%
    21:00 +14°C° 0 mm 1 m/s 733 mmHg 89%
    22:00 +12°C° 0 mm 0 m/s 733 mmHg 90%
    23:00 +12°C° 0.1 mm 0 m/s 733 mmHg 90%

    1 Iunie, Luni

    Timp Temperatura Precipitaţii Vânt Presiune Umiditate
    00:00 +12°C° 0.1 mm 0 m/s 733 mmHg 90%
    01:00 +12°C° 0.1 mm 0 m/s 732 mmHg 91%
    02:00 +11°C° 0.2 mm 0 m/s 732 mmHg 91%
    03:00 +11°C° 0.2 mm 0 m/s 732 mmHg 92%
    04:00 +12°C° 0.2 mm 1 m/s 732 mmHg 93%
    05:00 +13°C° 0.1 mm 1 m/s 732 mmHg 88%
    06:00 +14°C° 0.1 mm 1 m/s 732 mmHg 84%
    07:00 +15°C° 0.1 mm 1 m/s 732 mmHg 79%
    08:00 +16°C° 0.1 mm 2 m/s 732 mmHg 74%
    09:00 +18°C° 0.1 mm 2 m/s 732 mmHg 69%
    10:00 +19°C° 0.1 mm 3 m/s 732 mmHg 64%
    11:00 +19°C° 0.3 mm 3 m/s 732 mmHg 64%
    12:00 +19°C° 0.3 mm 3 m/s 732 mmHg 65%
    13:00 +19°C° 0.3 mm 4 m/s 731 mmHg 65%
    14:00 +19°C° 0.3 mm 3 m/s 731 mmHg 66%
    15:00 +19°C° 0.3 mm 3 m/s 731 mmHg 68%
    16:00 +19°C° 0.3 mm 3 m/s 731 mmHg 69%
    17:00 +17°C° 0.1 mm 2 m/s 731 mmHg 74%
    18:00 +16°C° 0.1 mm 2 m/s 731 mmHg 79%
    19:00 +15°C° 0.1 mm 1 m/s 731 mmHg 85%
    20:00 +14°C° 0 mm 1 m/s 731 mmHg 86%
    21:00 +14°C° 0 mm 1 m/s 731 mmHg 88%
    22:00 +13°C° 0 mm 1 m/s 732 mmHg 90%
    23:00 +13°C° 0 mm 1 m/s 731 mmHg 89%

    2 Iunie, Marţi

    Timp Temperatura Precipitaţii Vânt Presiune Umiditate
    00:00 +13°C° 0 mm 1 m/s 731 mmHg 89%
    01:00 +12°C° 0 mm 1 m/s 731 mmHg 89%
    02:00 +12°C° 0 mm 1 m/s 731 mmHg 89%
    03:00 +12°C° 0 mm 1 m/s 731 mmHg 88%
    04:00 +12°C° 0 mm 1 m/s 730 mmHg 87%
    05:00 +13°C° 0 mm 1 m/s 731 mmHg 82%
    06:00 +15°C° 0 mm 1 m/s 731 mmHg 76%
    07:00 +18°C° 0 mm 1 m/s 731 mmHg 70%
    08:00 +19°C° 0.2 mm 1 m/s 731 mmHg 65%
    09:00 +21°C° 0.2 mm 1 m/s 731 mmHg 60%
    10:00 +22°C° 0.2 mm 1 m/s 731 mmHg 55%
    11:00 +21°C° 0.6 mm 2 m/s 731 mmHg 55%
    12:00 +23°C° 0.6 mm 2 m/s 730 mmHg 56%
    13:00 +22°C° 0.6 mm 3 m/s 730 mmHg 56%
    14:00 +21°C° 0.8 mm 3 m/s 730 mmHg 58%
    15:00 +21°C° 0.8 mm 3 m/s 730 mmHg 60%
    16:00 +21°C° 0.8 mm 3 m/s 729 mmHg 62%
    17:00 +19°C° 0.4 mm 2 m/s 729 mmHg 68%
    18:00 +19°C° 0.4 mm 1 m/s 730 mmHg 75%
    19:00 +16°C° 0.4 mm 1 m/s 730 mmHg 82%
    20:00 +15°C° 0 mm 1 m/s 730 mmHg 83%
    21:00 +15°C° 0 mm 1 m/s 730 mmHg 84%
    22:00 +14°C° 0 mm 2 m/s 731 mmHg 84%
    23:00 +14°C° 0 mm 2 m/s 730 mmHg 84%

    3 Iunie, Miercuri

    Timp Temperatura Precipitaţii Vânt Presiune Umiditate
    00:00 +14°C° 0 mm 2 m/s 730 mmHg 84%
    01:00 +13°C° 0 mm 2 m/s 730 mmHg 84%
    02:00 +13°C° 0 mm 2 m/s 730 mmHg 83%
    03:00 +13°C° 0 mm 2 m/s 730 mmHg 83%
    04:00 +13°C° 0 mm 2 m/s 730 mmHg 83%
    05:00 +15°C° 0 mm 2 m/s 730 mmHg 78%
    06:00 +16°C° 0 mm 1 m/s 730 mmHg 73%
    07:00 +19°C° 0 mm 1 m/s 731 mmHg 68%
    08:00 +21°C° 0.1 mm 1 m/s 731 mmHg 63%
    09:00 +22°C° 0.1 mm 1 m/s 731 mmHg 57%
    10:00 +24°C° 0.1 mm 1 m/s 731 mmHg 52%
    11:00 +23°C° 0.8 mm 2 m/s 731 mmHg 54%
    12:00 +22°C° 0.8 mm 3 m/s 731 mmHg 57%
    13:00 +22°C° 0.8 mm 3 m/s 731 mmHg 59%
    14:00 +22°C° 1 mm 3 m/s 731 mmHg 62%
    15:00 +21°C° 1 mm 3 m/s 730 mmHg 65%
    16:00 +21°C° 1 mm 3 m/s 730 mmHg 67%
    17:00 +19°C° 0.4 mm 2 m/s 730 mmHg 73%
    18:00 +18°C° 0.4 mm 2 m/s 730 mmHg 78%
    19:00 +16°C° 0.4 mm 1 m/s 730 mmHg 84%
    20:00 +16°C° 0 mm 1 m/s 731 mmHg 85%
    21:00 +15°C° 0 mm 1 m/s 731 mmHg 86%
    22:00 +13°C° 0 mm 0 m/s 732 mmHg 87%
    23:00 +13°C° 0 mm 0 m/s 732 mmHg 87%
    Arată mai mult